| time (UTC) | temp F | wind direction | speed MPH | gust MPH | rain 1hr in | rain 24hr in | rain mn in | humidity % | barometer mb |
| 20260502223059 | 78 | 147 | 1.0 | 9.0 | 0.00 | 0.37 | 0.00 | 49 | 1018.6 |
| 20260502221606 | 78 | 274 | 1.0 | 10.0 | 0.00 | 0.37 | 0.00 | 50 | 1018.7 |
| 20260502220002 | 78 | 240 | 1.0 | 9.0 | 0.00 | 0.47 | 0.00 | 51 | 1018.6 |
| 20260502214501 | 77 | 275 | 3.0 | 11.0 | 0.00 | 0.47 | 0.00 | 50 | 1018.6 |
| 20260502213101 | 78 | 59 | 2.0 | 9.0 | 0.00 | 0.47 | 0.00 | 49 | 1018.9 |
| 20260502211602 | 77 | 69 | 0.0 | 6.0 | 0.00 | 0.47 | 0.00 | 52 | 1018.8 |
| 20260502210101 | 77 | 68 | 1.0 | 8.0 | 0.00 | 0.47 | 0.00 | 51 | 1018.9 |
| 20260502204502 | 77 | 36 | 0.0 | 11.0 | 0.00 | 0.65 | 0.00 | 53 | 1019.0 |
| 20260502203100 | 76 | 144 | 0.0 | 7.0 | 0.00 | 0.65 | 0.00 | 52 | 1019.0 |
| 20260502200105 | 76 | 194 | 1.0 | 6.0 | 0.00 | 0.65 | 0.00 | 55 | 1019.5 |
| 20260502194501 | 75 | 54 | 2.0 | 8.0 | 0.00 | 0.86 | 0.00 | 56 | 1019.7 |
| 20260502193100 | 75 | 285 | 3.0 | 8.0 | 0.00 | 0.86 | 0.00 | 55 | 1019.8 |
| 20260502193001 | 75 | 304 | 2.0 | 8.0 | 0.00 | 0.86 | 0.00 | 57 | 1019.8 |
| 20260502191604 | 75 | 94 | 2.0 | 10.0 | 0.00 | 0.86 | 0.00 | 55 | 1020.0 |
| 20260502190100 | 75 | 241 | 3.0 | 11.0 | 0.00 | 0.86 | 0.00 | 57 | 1020.0 |
| 20260502184601 | 74 | 90 | 2.0 | 7.0 | 0.00 | 1.35 | 0.00 | 57 | 1020.4 |
| 20260502183100 | 74 | 55 | 2.0 | 7.0 | 0.00 | 1.35 | 0.00 | 56 | 1020.2 |
| 20260502181602 | 73 | 178 | 1.0 | 11.0 | 0.00 | 1.35 | 0.00 | 57 | 1020.6 |
| 20260502181501 | 73 | 252 | 2.0 | 11.0 | 0.00 | 1.35 | 0.00 | 58 | 1020.5 |
| 20260502163111 | 70 | 140 | 1.0 | 8.0 | 0.00 | 1.88 | 0.00 | 69 | 1021.0 |
| 20260502161602 | 69 | 295 | 2.0 | 8.0 | 0.00 | 1.88 | 0.00 | 68 | 1021.0 |
| 20260502161501 | 69 | 301 | 2.0 | 8.0 | 0.00 | 1.88 | 0.00 | 68 | 1021.0 |
| 20260502151600 | 65 | 74 | 2.0 | 7.0 | 0.00 | 1.99 | 0.00 | 76 | 1020.7 |
| 20260502150112 | 64 | 25 | 1.0 | 10.0 | 0.00 | 1.99 | 0.00 | 79 | 1020.9 |
| 20260502130111 | 56 | 304 | 1.0 | 4.0 | 0.00 | 2.12 | 0.00 | 93 | 1019.7 |
| 20260502123103 | 54 | 281 | 0.0 | 3.0 | 0.00 | 2.18 | 0.00 | 93 | 1019.0 |
| 20260502121559 | 54 | 276 | 0.0 | 4.0 | 0.00 | 2.18 | 0.00 | 93 | 1018.9 |
| 20260502120104 | 54 | 270 | 1.0 | 4.0 | 0.00 | 2.18 | 0.00 | 93 | 1018.8 |
| 20260502114559 | 54 | 271 | 1.0 | 4.0 | 0.00 | 2.18 | 0.00 | 93 | 1018.5 |
| 20260502111559 | 54 | 268 | 0.0 | 2.0 | 0.00 | 2.18 | 0.00 | 92 | 1018.6 |
| 20260502110059 | 54 | 239 | 0.0 | 4.0 | 0.00 | 2.18 | 0.00 | 92 | 1018.2 |
| 20260502110001 | 54 | 239 | 0.0 | 4.0 | 0.00 | 2.18 | 0.00 | 92 | 1018.2 |
| 20260502104559 | 55 | 258 | 0.0 | 2.0 | 0.00 | 2.20 | 0.00 | 92 | 1017.9 |
| 20260502103058 | 55 | 55 | 0.0 | 2.0 | 0.00 | 2.20 | 0.00 | 92 | 1017.8 |
| 20260502101600 | 55 | 55 | 0.0 | 2.0 | 0.00 | 2.20 | 0.00 | 91 | 1017.7 |
| 20260502070058 | 56 | 68 | 0.0 | 2.0 | 0.00 | 2.81 | 0.00 | 93 | 1016.4 |
| 20260502063120 | 57 | 230 | 0.0 | 7.0 | 0.00 | 2.88 | 0.00 | 93 | 1016.5 |
| 20260502061558 | 57 | 212 | 0.0 | 4.0 | 0.00 | 2.88 | 0.00 | 93 | 1016.2 |
| 20260502060100 | 57 | 142 | 0.0 | 4.0 | 0.00 | 2.88 | 0.00 | 93 | 1016.0 |
| 20260502054607 | 57 | 69 | 1.0 | 5.0 | 0.00 | 2.90 | 0.00 | 94 | 1016.0 |
| 20260502053104 | 57 | 32 | 0.0 | 5.0 | 0.00 | 2.90 | 0.00 | 94 | 1016.1 |
| 20260502050056 | 57 | 69 | 0.0 | 5.0 | 0.00 | 2.90 | 0.00 | 94 | 1015.9 |
| 20260502050004 | 57 | 69 | 0.0 | 5.0 | 0.00 | 2.90 | 0.00 | 94 | 1015.9 |
| 20260502044603 | 57 | 24 | 0.0 | 7.0 | 0.00 | 3.14 | 2.90 | 94 | 1015.6 |
| 20260502043101 | 57 | 124 | 0.0 | 4.0 | 0.00 | 3.14 | 2.90 | 94 | 1015.7 |
| 20260502040104 | 57 | 129 | 1.0 | 3.0 | 0.00 | 3.14 | 2.90 | 95 | 1015.8 |
| 20260502034559 | 57 | 163 | 1.0 | 7.0 | 0.00 | 3.14 | 2.90 | 95 | 1015.8 |
| 20260502031558 | 57 | 170 | 2.0 | 10.0 | 0.01 | 3.14 | 2.90 | 94 | 1015.1 |
| 20260502030059 | 57 | 252 | 2.0 | 9.0 | 0.01 | 3.14 | 2.90 | 95 | 1015.0 |
| 20260502024607 | 57 | 228 | 2.0 | 6.0 | 0.01 | 3.14 | 2.90 | 95 | 1014.5 |
| 20260502023100 | 58 | 119 | 1.0 | 6.0 | 0.03 | 3.14 | 2.90 | 95 | 1013.9 |
| 20260502021559 | 58 | 331 | 1.0 | 7.0 | 0.03 | 3.13 | 2.89 | 95 | 1013.7 |
| 20260502020058 | 59 | 163 | 0.0 | 5.0 | 0.05 | 3.13 | 2.89 | 95 | 1013.5 |
| 20260502020001 | 59 | 146 | 0.0 | 5.0 | 0.05 | 3.13 | 2.89 | 95 | 1013.5 |
| 20260502014558 | 60 | 281 | 2.0 | 9.0 | 0.09 | 3.13 | 2.89 | 95 | 1013.5 |
| 20260502013059 | 60 | 169 | 0.0 | 3.0 | 0.09 | 3.11 | 2.87 | 95 | 1013.4 |
| 20260502011559 | 59 | 264 | 2.0 | 6.0 | 0.09 | 3.10 | 2.86 | 95 | 1013.2 |
| 20260502010057 | 60 | 252 | 1.0 | 8.0 | 0.09 | 3.08 | 2.84 | 95 | 1012.8 |
| 20260502004603 | 60 | 57 | 0.0 | 7.0 | 0.09 | 3.04 | 2.80 | 95 | 1013.1 |
| 20260502003057 | 60 | 87 | 1.0 | 7.0 | 0.14 | 3.02 | 2.78 | 95 | 1012.5 |
| 20260502001558 | 60 | 217 | 0.0 | 7.0 | 0.15 | 3.01 | 2.77 | 95 | 1011.9 |
| 20260501234559 | 60 | 273 | 0.0 | 8.0 | 0.17 | 2.95 | 2.71 | 95 | 1011.8 |
| 20260501233058 | 61 | 277 | 2.0 | 10.0 | 0.11 | 2.88 | 2.64 | 95 | 1012.6 |
| 20260501231637 | 61 | 100 | 0.0 | 9.0 | 0.09 | 2.86 | 2.62 | 95 | 1010.1 |
| 20260501224611 | 62 | 69 | 2.0 | 8.0 | 0.02 | 2.78 | 2.54 | 95 | 1011.0 |